Latest Weather Observations for Nambour

IDQ60901

Issued at 12:31 pm EST Monday 3 August 2015 (issued every 10 minutes, with the page automatically refreshed every 10 minutes)

About weather observations | Map of Brisbane area stations | Latest observations for Brisbane area | Other Formats
Station Details ID: 040988 Name: NAMBOUR DAFF - HILLSIDE Lat: -26.64 Lon: 152.94 Height: 53.24 m
Data from the previous 72 hours. | See also: Recent months at Nambour
Date/Time
EST
Tmp

°C
App
Tmp
°C
Dew
Point
°C
Rel
Hum
%
Delta-T

°C
Wind Press
QNH
hPa
Press
MSL
hPa
Rain
since
9 am
mm
Dir
 
Spd
km/h
Gust
km/h
Spd
kts
Gust
kts
03/12:30pm 24.4 23.5 13.6 51 6.3 N 11 19 6 10 1016.7 1016.6 0.0
03/12:00pm 23.6 22.6 13.5 53 5.9 N 11 17 6 9 1017.4 1017.4 0.0
03/11:30am 23.0 21.6 13.5 55 5.5 N 13 20 7 11 1018.0 1018.0 0.0
03/11:00am 22.2 20.5 13.5 57 5.0 N 15 22 8 12 1018.6 1018.6 0.0
03/10:30am 21.9 19.9 14.0 61 4.6 N 17 26 9 14 1019.3 1019.3 0.0
03/10:00am 21.5 20.7 13.9 62 4.4 NNW 11 22 6 12 1019.6 1019.6 0.0
03/09:30am 20.8 19.6 14.0 65 3.9 N 13 26 7 14 1019.6 1019.6 0.0
03/09:00am 20.2 19.0 13.9 67 3.6 NNE 13 22 7 12 1019.6 1019.6 0.0
03/08:30am 19.4 18.7 14.2 72 3.0 NNE 11 19 6 10 1019.6 1019.6 0.0
03/08:00am 18.5 17.7 14.0 75 2.6 NNE 11 20 6 11 1019.4 1019.4 0.0
03/07:30am 17.5 17.4 14.0 80 2.0 NNE 7 11 4 6 1019.2 1019.2 0.0
03/07:00am 16.6 16.6 13.7 83 1.6 N 6 13 3 7 1019.2 1019.2 0.0
03/06:30am 15.8 15.9 13.8 88 1.1 N 6 9 3 5 1019.1 1019.1 0.0
03/06:00am 15.8 15.9 14.0 89 1.0 N 6 11 3 6 1018.8 1018.8 0.0
03/05:30am 15.4 16.2 13.8 90 0.9 N 2 6 1 3 1018.8 1018.8 0.0
03/05:00am 15.3 15.7 13.7 90 0.9 NNE 4 6 2 3 1018.6 1018.6 0.0
03/04:30am 15.0 15.9 12.9 87 1.2 CALM 0 2 0 1 1018.5 1018.5 0.0
03/04:00am 14.8 15.4 13.2 90 0.9 NE 2 7 1 4 1018.5 1018.5 0.0
03/03:30am 14.6 14.7 12.6 88 1.1 E 4 6 2 3 1018.6 1018.6 0.0
03/03:00am 14.4 14.0 12.4 88 1.1 ESE 6 7 3 4 1018.8 1018.8 0.0
03/02:30am 14.7 15.1 12.4 86 1.3 E 2 4 1 2 1019.0 1019.0 0.0
03/02:00am 14.4 15.0 11.9 85 1.3 CALM 0 0 0 0 1019.2 1019.2 0.0
03/01:30am 14.3 14.5 11.8 85 1.3 N 2 4 1 2 1019.6 1019.6 0.0
03/01:00am 14.1 14.6 11.6 85 1.3 CALM 0 4 0 2 1020.0 1020.0 0.0
03/12:30am 14.3 14.9 11.8 85 1.3 CALM 0 4 0 2 1020.2 1020.2 0.0
03/12:00am 14.3 13.9 11.1 81 1.7 NNW 4 9 2 5 1020.3 1020.3 0.0
 
Date/Time
EST
Tmp

°C
App
Tmp
°C
Dew
Point
°C
Rel
Hum
%
Delta-T

°C
Wind Press
QNH
hPa
Press
MSL
hPa
Rain
since
9 am
mm
Dir
 
Spd
km/h
Gust
km/h
Spd
kts
Gust
kts
02/11:30pm 13.8 14.2 11.1 84 1.4 CALM 0 4 0 2 1020.3 1020.3 0.0
02/11:00pm 15.1 14.6 11.9 81 1.7 NW 6 7 3 4 1020.5 1020.5 0.0
02/10:30pm 13.2 13.8 11.8 91 0.7 CALM 0 0 0 0 1020.6 1020.6 0.0
02/10:00pm 13.2 13.9 12.1 93 0.6 CALM 0 0 0 0 1020.7 1020.7 0.0
02/09:30pm 13.6 14.2 11.8 89 1.0 CALM 0 0 0 0 1020.6 1020.6 0.0
02/09:00pm 14.7 15.2 11.7 82 1.6 CALM 0 0 0 0 1020.7 1020.7 0.0
02/08:30pm 14.5 15.4 12.9 90 0.9 CALM 0 0 0 0 1020.6 1020.6 0.0
02/08:00pm 15.1 16.2 13.5 90 0.9 CALM 0 0 0 0 1020.8 1020.8 0.0
02/07:30pm 15.2 16.0 12.5 84 1.5 CALM 0 0 0 0 1020.6 1020.6 0.0
02/07:00pm 16.5 17.5 13.2 81 1.8 CALM 0 0 0 0 1020.4 1020.4 0.0
02/06:30pm 17.1 18.0 13.0 77 2.3 CALM 0 0 0 0 1020.1 1020.1 0.0
02/06:00pm 17.9 18.7 12.4 70 3.0 CALM 0 0 0 0 1019.9 1019.9 0.0
02/05:30pm 19.7 19.9 12.9 65 3.8 ENE 4 6 2 3 1019.7 1019.7 0.0
02/05:00pm 22.2 22.5 11.0 49 6.2 CALM 0 4 0 2 1019.3 1019.3 0.0
02/04:30pm 23.0 21.9 10.8 46 6.8 N 7 11 4 6 1019.1 1019.1 0.0
02/04:00pm 23.5 22.6 11.2 46 6.9 N 7 13 4 7 1019.1 1019.1 0.0
02/03:30pm 23.8 22.9 11.2 45 7.1 N 7 15 4 8 1019.3 1019.3 0.0
02/03:00pm 23.4 22.3 11.8 48 6.5 N 9 15 5 8 1019.5 1019.5 0.0
02/02:30pm 23.8 21.9 10.5 43 7.4 NW 11 20 6 11 1019.8 1019.8 0.0
02/02:00pm 23.8 21.5 10.5 43 7.3 NNW 13 22 7 12 1020.1 1020.1 0.0
02/01:30pm 24.8 23.5 12.4 46 7.1 NNW 11 20 6 11 1020.4 1020.4 0.0
02/01:00pm 24.0 22.3 12.3 48 6.7 NW 13 24 7 13 1020.8 1020.8 0.0
02/12:30pm 23.2 21.4 12.2 50 6.3 N 13 19 7 10 1021.2 1021.2 0.0
02/12:00pm 23.0 21.7 12.6 52 5.9 NNW 11 24 6 13 1021.9 1021.9 0.0
02/11:30am 22.6 21.1 13.1 55 5.5 NNW 13 20 7 11 1022.5 1022.5 0.0
02/11:00am 22.4 21.2 12.9 55 5.4 NNW 11 20 6 11 1022.8 1022.8 0.0
02/10:30am 21.7 20.1 12.8 57 5.1 N 13 17 7 9 1023.1 1023.1 0.0
02/10:00am 21.2 19.6 12.9 59 4.7 N 13 20 7 11 1023.3 1023.3 0.0
02/09:30am 20.9 20.1 12.8 60 4.6 NNW 9 15 5 8 1023.3 1023.3 0.0
02/09:00am 20.1 19.6 12.8 63 4.1 NNW 7 13 4 7 1023.5 1023.5 0.2
02/08:30am 17.8 18.2 13.7 77 2.3 N 4 9 2 5 1023.5 1023.5 0.2
02/08:00am 14.4 15.4 13.3 93 0.6 CALM 0 0 0 0 1023.6 1023.6 0.2
02/07:30am 11.7 12.1 11.1 96 0.3 CALM 0 0 0 0 1023.5 1023.5 0.2
02/07:00am 10.4 10.4 9.9 97 0.3 CALM 0 0 0 0 1023.2 1023.2 0.0
02/06:30am 9.7 9.5 9.2 97 0.2 CALM 0 0 0 0 1022.8 1022.8 0.0
02/06:00am 9.7 9.5 9.2 97 0.2 CALM 0 0 0 0 1022.6 1022.6 0.0
02/05:30am 10.4 10.4 9.9 97 0.3 CALM 0 0 0 0 1022.5 1022.5 0.0
02/05:00am 9.8 9.7 9.3 97 0.2 CALM 0 0 0 0 1022.3 1022.3 0.0
02/04:30am 10.6 10.7 10.1 97 0.3 CALM 0 0 0 0 1022.3 1022.3 0.0
02/04:00am 10.4 10.4 9.8 96 0.3 CALM 0 0 0 0 1022.1 1022.1 0.0
02/03:30am 10.8 10.9 10.3 97 0.3 CALM 0 0 0 0 1022.2 1022.2 0.0
02/03:00am 10.7 10.8 10.1 96 0.3 CALM 0 0 0 0 1022.4 1022.4 0.0
02/02:30am 10.2 10.0 9.1 93 0.5 CALM 0 0 0 0 1022.3 1022.3 0.0
02/02:00am 10.4 10.3 9.3 93 0.5 CALM 0 0 0 0 1022.5 1022.5 0.0
02/01:30am 11.2 11.3 10.3 94 0.5 CALM 0 0 0 0 1022.8 1022.8 0.0
02/01:00am 10.8 10.7 9.4 91 0.7 CALM 0 0 0 0 1023.0 1023.0 0.0
02/12:30am 11.9 12.2 11.0 94 0.5 CALM 0 0 0 0 1023.1 1023.1 0.0
02/12:00am 11.0 10.9 9.6 91 0.7 CALM 0 0 0 0 1023.2 1023.2 0.0
 
Date/Time
EST
Tmp

°C
App
Tmp
°C
Dew
Point
°C
Rel
Hum
%
Delta-T

°C
Wind Press
QNH
hPa
Press
MSL
hPa
Rain
since
9 am
mm
Dir
 
Spd
km/h
Gust
km/h
Spd
kts
Gust
kts
01/11:30pm 11.6 11.8 10.5 93 0.6 CALM 0 0 0 0 1023.4 1023.4 0.0
01/11:00pm 11.5 11.7 10.6 94 0.5 CALM 0 0 0 0 1023.6 1023.6 0.0
01/10:30pm 12.2 12.6 11.3 94 0.5 CALM 0 0 0 0 1023.5 1023.5 0.0
01/10:00pm 12.5 12.9 11.4 93 0.6 CALM 0 0 0 0 1023.5 1023.5 0.0
01/09:30pm 13.0 13.4 11.4 90 0.8 CALM 0 0 0 0 1023.4 1023.4 0.0
01/09:00pm 13.0 13.4 11.4 90 0.8 CALM 0 0 0 0 1023.3 1023.3 0.0
01/08:30pm 13.2 13.6 11.4 89 1.0 CALM 0 0 0 0 1023.1 1023.1 0.0
01/08:00pm 13.3 13.5 10.7 84 1.4 CALM 0 0 0 0 1022.9 1022.9 0.0
01/07:30pm 13.9 14.1 10.5 80 1.8 CALM 0 0 0 0 1022.7 1022.7 0.0
01/07:00pm 15.8 15.9 11.6 76 2.3 W 2 4 1 2 1022.6 1022.6 0.0
01/06:30pm 16.0 16.3 11.0 72 2.7 CALM 0 4 0 2 1022.3 1022.3 0.0
01/06:00pm 16.8 17.4 11.9 73 2.7 CALM 0 0 0 0 1021.9 1021.9 0.0
01/05:30pm 18.4 18.2 11.7 65 3.7 NE 4 6 2 3 1021.6 1021.6 0.0
01/05:00pm 19.6 19.1 12.1 62 4.2 ENE 6 9 3 5 1021.3 1021.3 0.0
01/04:30pm 20.8 20.1 12.0 57 4.9 ENE 7 13 4 7 1021.2 1021.2 0.0
01/04:00pm 21.8 20.6 11.5 52 5.7 ENE 9 15 5 8 1021.0 1021.0 0.0
01/03:30pm 23.3 21.9 9.7 42 7.4 NE 7 15 4 8 1020.8 1020.8 0.0
01/03:00pm 23.6 23.0 8.8 39 7.9 NNE 2 9 1 5 1020.9 1020.9 0.0
01/02:30pm 23.5 22.1 8.8 39 7.9 NNW 6 9 3 5 1020.8 1020.8 0.0
01/02:00pm 23.3 22.0 9.3 41 7.5 N 6 13 3 7 1021.0 1021.0 0.0
01/01:30pm 22.6 20.9 9.7 44 7.0 ENE 9 15 5 8 1021.2 1021.2 0.0
01/01:00pm 22.4 20.5 8.9 42 7.2 NE 9 13 5 7 1021.8 1021.8 0.0
01/12:30pm 22.6 21.1 10.4 46 6.7 NE 9 15 5 8 1022.3 1022.3 0.0
01/12:00pm 22.1 20.4 9.9 46 6.6 NNE 9 19 5 10 1022.7 1022.7 0.0
01/11:30am 21.8 19.9 10.6 49 6.2 NNE 11 17 6 9 1023.2 1023.2 0.0
01/11:00am 21.3 19.2 9.9 48 6.1 NNE 11 19 6 10 1023.7 1023.7 0.0
01/10:30am 20.9 18.7 9.5 48 6.1 N 11 15 6 8 1024.2 1024.2 0.0
01/10:00am 21.0 19.5 10.5 51 5.7 N 9 13 5 7 1024.4 1024.4 0.0
01/09:30am 19.9 20.7 12.4 62 4.2 CALM 0 2 0 1 1024.4 1024.4 0.0
01/09:00am 17.3 17.9 11.8 70 3.0 CALM 0 0 0 0 1024.3 1024.3 0.0
01/08:30am 14.8 15.0 10.6 76 2.2 CALM 0 0 0 0 1023.9 1023.9 0.0
01/08:00am 12.5 12.6 10.0 85 1.3 CALM 0 0 0 0 1023.7 1023.7 0.0
01/07:30am 10.7 10.6 9.6 93 0.6 CALM 0 0 0 0 1023.3 1023.3 0.0
01/07:00am 9.0 8.6 8.4 96 0.3 CALM 0 0 0 0 1023.2 1023.2 0.0
01/06:30am 8.3 7.8 7.7 96 0.3 CALM 0 0 0 0 1023.0 1023.0 0.0
01/06:00am 8.1 7.5 7.2 94 0.4 CALM 0 0 0 0 1022.9 1022.9 0.0
01/05:30am 8.3 7.8 7.9 97 0.2 CALM 0 2 0 1 1022.6 1022.6 0.0
01/05:00am 9.0 8.7 8.6 97 0.2 CALM 0 0 0 0 1022.3 1022.3 0.0
01/04:30am 8.4 7.8 7.6 95 0.4 CALM 0 0 0 0 1022.2 1022.2 0.0
01/04:00am 8.5 7.9 7.6 94 0.4 CALM 0 0 0 0 1022.1 1022.1 0.0
01/03:30am 8.6 8.1 7.8 95 0.4 CALM 0 0 0 0 1022.2 1022.2 0.0
01/03:00am 9.4 9.1 8.6 95 0.4 CALM 0 0 0 0 1022.3 1022.3 0.0
01/02:30am 9.6 8.9 8.7 94 0.4 S 2 6 1 3 1022.4 1022.4 0.0
01/02:00am 9.4 9.1 8.5 94 0.4 CALM 0 0 0 0 1022.4 1022.4 0.0
01/01:30am 9.4 8.9 8.0 91 0.7 CALM 0 2 0 1 1022.5 1022.5 0.0
01/01:00am 9.8 9.5 8.6 92 0.6 CALM 0 0 0 0 1022.8 1022.8 0.0
01/12:30am 10.3 10.0 8.7 90 0.8 CALM 0 0 0 0 1022.6 1022.6 0.0
01/12:00am 10.1 9.9 8.9 92 0.6 CALM 0 0 0 0 1022.6 1022.6 0.0
 
Date/Time
EST
Tmp

°C
App
Tmp
°C
Dew
Point
°C
Rel
Hum
%
Delta-T

°C
Wind Press
QNH
hPa
Press
MSL
hPa
Rain
since
9 am
mm
Dir
 
Spd
km/h
Gust
km/h
Spd
kts
Gust
kts
31/11:30pm 10.8 10.8 9.7 93 0.6 CALM 0 0 0 0 1022.6 1022.6 0.0
31/11:00pm 11.2 11.3 10.1 93 0.6 CALM 0 0 0 0 1022.8 1022.8 0.0
31/10:30pm 11.2 11.2 9.8 91 0.7 CALM 0 0 0 0 1022.8 1022.8 0.0
31/10:00pm 11.6 11.6 9.9 89 0.9 CALM 0 0 0 0 1022.8 1022.8 0.0
31/09:30pm 11.6 11.7 10.0 90 0.8 CALM 0 0 0 0 1022.8 1022.8 0.0
31/09:00pm 12.7 13.0 10.9 89 0.9 CALM 0 0 0 0 1022.4 1022.4 0.0
31/08:30pm 12.4 12.4 9.8 84 1.3 CALM 0 0 0 0 1022.3 1022.3 0.0
31/08:00pm 13.8 14.1 11.0 83 1.5 CALM 0 0 0 0 1022.1 1022.1 0.0
31/07:30pm 13.6 13.8 10.6 82 1.6 CALM 0 0 0 0 1022.0 1022.0 0.0
31/07:00pm 13.9 14.1 10.7 81 1.7 CALM 0 0 0 0 1021.7 1021.7 0.0
31/06:30pm 14.9 14.8 10.7 76 2.2 WSW 2 4 1 2 1021.4 1021.4 0.0
31/06:00pm 16.6 16.5 10.9 69 3.0 WNW 2 6 1 3 1021.1 1021.1 0.0
31/05:30pm 17.7 17.8 10.3 62 3.9 CALM 0 0 0 0 1021.1 1021.1 0.0
31/05:00pm 19.7 19.0 9.9 53 5.2 ENE 4 7 2 4 1020.8 1020.8 0.0
31/04:30pm 21.4 20.4 8.7 44 6.7 ESE 4 9 2 5 1020.5 1020.5 0.0
31/04:00pm 23.3 22.0 4.3 29 9.3 CALM 0 6 0 3 1020.3 1020.3 0.0
31/03:30pm 23.8 21.8 4.2 28 9.7 W 4 7 2 4 1020.3 1020.3 0.0
31/03:00pm 23.9 21.5 4.3 28 9.7 SW 6 11 3 6 1020.4 1020.4 0.0
31/02:30pm 24.0 22.0 4.4 28 9.7 SSW 4 11 2 6 1020.5 1020.5 0.0
31/02:00pm 23.6 21.1 4.0 28 9.6 WSW 6 11 3 6 1020.7 1020.7 0.0
31/01:30pm 23.4 20.9 4.9 30 9.2 WSW 7 15 4 8 1021.0 1021.0 0.0
31/01:00pm 23.3 21.1 6.1 33 8.7 W 7 13 4 7 1021.1 1021.1 0.0

Latest Capital City Observations: Canberra | Sydney | Melbourne | Brisbane | Adelaide | Perth | Hobart | Darwin

Other Formats:

Comma delimited format used in spreadsheet applications
http://www.bom.gov.au/fwo/IDQ60901/IDQ60901.95572.axf

JavaScript Object Notation format (JSON) in row-major order
http://www.bom.gov.au/fwo/IDQ60901/IDQ60901.95572.json